Wind_Speed
5 6 11 14 15 16 16 17 17 16 15 15 15 14 13 11 8 7 4 2 2 4 6 7 8 7 6 5 4 4 4 4 5 6 6 6 6 7 8 8 9 10 10 11
7 6 10 13 14 15 15 15 16 16 15 16 15 14 13 10 8 7 5 2 1 3 4 6 7 5 4 4 3 3 3 3 4 4 5 5 6 7 8 9 9 10 11 11
9 7 9 11 12 14 14 14 15 15 15 14 13 10 11 10 8 8 7 5 4 4 5 5 4 4 4 3 3 2 2 2 3 4 5 6 6 7 8 9 10 11 12 12
8 8 9 10 11 13 13 13 14 14 14 15 11 7 8 9 8 9 8 7 6 5 5 4 4 5 4 3 2 1 1 1 2 3 4 6 7 8 9 10 11 12 13 13
8 9 10 11 11 12 13 13 12 12 13 12 8 5 7 7 9 10 9 8 8 6 5 4 4 4 2 2 2 2 2 1 2 3 4 6 7 9 10 11 12 13 13 14
9 10 11 12 11 11 12 11 10 10 11 10 5 4 6 7 8 10 9 8 7 6 5 4 3 2 1 1 2 2 1 1 2 3 5 6 8 9 11 11 12 13 14 15
11 12 11 11 10 10 12 12 11 10 10 10 6 3 4 6 7 8 8 7 7 6 5 4 3 2 2 2 2 2 2 2 3 4 5 7 8 10 11 12 13 14 15 16
14 12 12 13 11 10 11 13 12 12 11 11 7 2 2 4 5 6 6 6 5 5 4 4 3 2 1 2 2 2 2 3 4 5 6 8 9 10 12 13 14 14 15 17
16 14 13 13 12 12 13 13 13 13 11 10 7 3 2 1 3 4 4 3 3 3 3 2 1 0 1 2 3 3 3 4 5 7 8 9 10 11 12 13 14 15 16 17
15 14 13 14 14 14 14 14 14 14 13 10 5 2 3 3 1 1 1 2 2 2 2 2 2 2 2 3 4 4 4 5 7 8 9 11 12 12 14 15 16 17 18 19
15 16 15 16 16 17 17 18 17 15 14 12 10 8 7 7 5 3 1 1 2 2 3 3 3 3 3 4 4 5 6 7 8 10 11 12 13 14 16 17 18 19 20 21
16 18 18 18 18 18 18 18 17 16 16 15 14 11 9 9 8 6 4 5 5 4 4 4 4 4 4 5 6 7 8 9 11 12 13 14 15 16 17 18 19 21 22 23
17 19 19 17 17 18 18 17 16 18 17 17 15 12 10 10 10 9 8 9 8 6 6 6 6 6 6 7 8 9 10 12 13 14 15 16 17 18 19 20 21 23 24 26
19 20 20 19 17 17 15 15 16 16 17 17 16 14 14 13 13 12 11 10 9 8 8 8 8 8 8 8 10 11 12 14 15 16 18 19 20 20 21 22 23 25 26 27
21 21 21 19 18 17 16 15 15 15 15 17 17 17 17 16 15 13 13 13 11 10 10 10 10 11 11 11 12 13 14 16 17 18 19 21 21 22 23 24 25 27 29 30
22 22 20 19 19 19 18 15 16 16 17 18 19 19 18 17 17 15 14 14 13 12 12 12 13 13 14 14 14 15 16 18 19 20 21 22 23 24 25 26 28 29 30 32
23 24 22 20 18 19 18 17 18 19 20 19 22 22 21 20 18 16 15 17 15 13 13 14 14 15 16 17 17 18 19 20 21 22 23 24 25 27 27 28 29 31 32 34
23 23 22 20 20 19 17 18 19 21 21 22 23 24 24 22 21 18 17 17 15 14 14 15 16 17 18 19 20 21 22 23 23 24 25 26 27 28 29 31 32 33 34 35
23 23 22 21 21 19 18 20 21 21 22 22 22 23 23 23 22 20 19 17 17 16 16 18 19 19 20 21 22 23 24 25 26 27 28 29 30 31 32 33 34 35 36 37
22 22 23 23 22 21 19 20 22 23 22 22 23 24 24 24 24 24 22 19 19 19 20 21 22 22 23 24 24 25 26 27 28 29 30 32 32 33 35 36 37 38 39 39
24 24 23 23 23 21 20 20 20 21 20 22 23 23 24 23 24 23 21 20 20 22 23 24 25 25 25 26 26 27 29 30 31 31 32 34 35 36 37 38 39 40 41 41
25 25 25 25 24 21 21 20 19 19 19 19 20 21 22 21 21 21 22 23 23 24 25 25 26 27 28 29 30 31 32 33 34 35 35 36 37 39 39 40 41 42 42 43
25 26 26 26 24 23 23 21 20 20 20 19 19 19 21 22 22 21 22 24 25 26 27 27 28 29 30 31 32 33 34 35 36 37 38 39 40 42 43 43 44 44 44 45
25 27 27 27 27 24 24 23 23 22 20 20 20 22 21 20 20 22 23 25 26 28 29 30 31 32 32 34 35 35 36 38 39 40 41 42 43 44 45 45 46 46 47 47
26 27 28 29 28 28 27 26 25 24 24 23 23 22 22 22 23 24 25 27 28 29 30 32 32 33 34 36 36 37 39 40 41 42 43 44 46 47 47 48 48 49 48 49
28 29 29 30 30 30 28 26 25 25 24 23 24 24 24 25 26 27 27 28 29 30 31 33 34 35 36 38 39 40 42 42 43 45 46 47 48 49 50 50 50 51 51 52
Wind_Direction
314 352 12 12 6 0 355 348 344 342 345 345 340 346 349 350 351 356 358 343 244 211 199 206 215 226 236 244 265 277 295 312 313 315 325 337 343 341 338 334 331 331 329 328
301 334 358 359 358 347 342 340 339 340 341 344 348 355 1 4 11 20 29 56 143 193 183 183 193 215 224 226 237 250 285 307 313 320 328 335 337 337 337 335 335 336 335 335
306 327 352 349 343 336 337 334 338 343 342 342 346 360 9 18 34 37 49 69 94 132 154 161 173 175 182 191 186 220 274 291 315 328 334 339 342 341 343 344 345 343 341 339
314 318 323 324 320 322 329 336 342 348 346 343 350 19 31 38 50 52 54 65 90 108 125 133 144 152 150 162 185 206 240 284 314 332 341 347 350 351 350 350 349 347 343 341
320 315 315 319 314 312 319 328 338 345 347 347 359 39 54 61 63 57 56 67 81 95 111 124 136 143 145 185 199 187 210 254 304 327 339 345 350 351 352 351 348 346 343 341
315 320 321 321 318 310 310 317 332 339 342 345 8 56 71 75 74 65 64 70 76 90 102 109 121 137 152 180 187 190 215 264 308 327 337 344 349 350 350 349 347 346 344 342
299 310 318 319 320 309 308 307 316 324 334 347 1 54 93 89 84 73 69 67 74 83 90 97 113 134 160 192 206 217 239 277 309 326 334 341 345 346 346 345 344 344 343 341
293 304 310 312 315 303 301 302 305 311 318 334 340 345 117 102 93 81 76 75 71 73 81 86 99 133 175 233 250 258 272 292 308 319 326 333 337 338 340 340 339 340 339 338
288 296 300 302 303 296 291 291 290 295 302 315 332 338 222 167 103 87 90 90 75 64 57 55 47 27 242 253 259 265 276 292 304 313 319 324 327 329 332 332 333 333 332 332
279 289 289 291 290 287 286 288 282 281 288 298 304 316 293 266 241 149 115 77 60 43 26 8 339 312 280 272 274 280 285 295 303 309 314 317 319 322 323 324 326 326 326 327
276 283 285 284 284 280 279 283 278 275 280 281 281 275 286 286 279 265 243 8 15 6 352 341 327 316 305 293 291 292 293 295 300 306 310 312 314 316 317 317 319 321 321 322
274 283 286 286 284 280 278 279 273 269 272 271 274 273 285 286 284 284 290 320 328 326 331 330 323 314 306 299 295 294 294 297 301 303 305 307 308 309 310 311 313 315 316 316
283 291 292 288 284 282 277 272 269 267 269 265 267 274 281 285 291 295 299 307 315 318 321 317 313 309 307 301 295 292 292 294 297 299 300 302 304 306 307 308 309 311 312 313
289 293 292 289 286 283 280 272 267 264 262 259 263 271 277 281 286 289 298 301 306 312 314 309 303 303 303 297 291 289 290 291 293 294 296 298 301 303 305 306 307 308 310 312
288 292 292 287 285 281 279 270 263 261 262 258 261 265 273 280 283 286 292 300 302 306 307 306 302 299 297 293 288 287 287 288 290 291 293 296 298 300 302 303 304 306 309 310
285 287 286 282 277 276 275 269 264 262 260 261 263 267 273 277 279 284 289 294 297 298 298 297 295 292 290 289 286 285 284 285 287 289 291 294 296 298 300 303 304 306 308 309
279 282 281 279 276 279 276 266 262 261 259 261 264 268 273 273 276 282 283 284 287 289 287 288 283 282 286 287 287 285 285 285 287 289 291 293 295 297 299 302 304 306 307 308
280 280 281 282 282 279 275 261 258 261 263 264 266 267 269 269 273 270 278 276 278 280 280 283 282 280 283 286 287 287 287 287 289 290 292 293 295 297 299 301 303 305 307 307
279 281 280 281 283 279 272 267 261 262 263 267 270 271 271 269 267 267 274 271 272 279 285 288 286 284 284 285 286 287 288 288 289 291 292 294 295 296 297 299 302 304 305 306
278 281 281 277 280 279 277 269 266 266 270 273 276 275 272 270 268 266 268 270 272 280 288 290 288 285 286 286 286 288 288 288 289 290 292 293 295 296 297 298 300 302 304 305
277 278 278 278 279 279 277 272 268 269 275 280 282 278 275 271 271 269 271 279 279 283 286 286 287 285 285 287 288 290 290 289 288 289 291 293 294 295 296 298 300 301 303 305
278 278 277 281 281 279 285 280 277 280 286 290 290 286 281 279 278 281 281 281 282 286 286 284 285 285 285 286 287 288 289 288 289 290 292 292 294 295 296 298 300 301 302 303
275 278 280 282 286 285 287 285 286 290 292 292 292 290 289 285 281 283 284 283 284 285 287 285 285 285 285 285 286 287 288 288 290 291 292 293 294 295 296 297 299 300 301 302
272 276 278 280 283 286 290 290 289 288 291 293 294 293 292 291 289 289 288 287 286 286 285 285 285 284 286 286 285 285 286 287 289 290 291 292 293 295 295 296 298 299 299 300
270 273 276 279 283 287 289 289 288 290 294 294 293 293 291 294 295 294 291 289 287 286 286 286 286 286 286 286 286 287 288 288 289 290 291 292 293 294 294 295 296 297 297 297
269 272 275 279 281 283 285 286 286 289 290 292 292 292 294 296 295 294 292 291 289 288 287 287 287 288 288 288 288 289 290 290 290 290 291 291 292 292 292 293 293 294 295 295
Height
5899 5898 5894 5892 5890 5888 5887 5886 5884 5882 5880 5878 5875 5872 5869 5867 5865 5863 5862 5862 5863 5863 5864 5865 5867 5870 5872 5874 5876 5877 5878 5878 5877 5877 5876 5875 5874 5872 5871 5869 5868 5866 5864 5862
5898 5896 5893 5891 5889 5888 5887 5885 5884 5882 5879 5878 5875 5872 5869 5866 5864 5862 5861 5861 5861 5862 5862 5863 5865 5867 5870 5872 5874 5875 5876 5876 5876 5875 5874 5873 5872 5871 5869 5867 5865 5863 5861 5859
5895 5894 5892 5890 5888 5887 5887 5885 5884 5882 5879 5877 5874 5872 5870 5867 5865 5863 5862 5861 5860 5861 5863 5864 5865 5867 5869 5871 5872 5874 5874 5875 5874 5874 5873 5872 5870 5869 5867 5865 5863 5861 5859 5857
5894 5892 5891 5890 5888 5887 5886 5884 5882 5880 5878 5875 5874 5872 5870 5868 5866 5865 5863 5862 5861 5863 5864 5865 5866 5867 5869 5871 5871 5872 5873 5873 5873 5873 5872 5870 5868 5867 5865 5863 5861 5859 5857 5854
5893 5891 5890 5889 5887 5885 5884 5883 5881 5879 5877 5875 5873 5872 5871 5869 5867 5866 5864 5864 5863 5864 5864 5866 5867 5868 5869 5870 5871 5871 5872 5872 5872 5871 5870 5869 5867 5865 5863 5861 5859 5857 5855 5852
5891 5890 5888 5887 5886 5883 5882 5881 5880 5879 5877 5875 5873 5873 5872 5869 5868 5867 5865 5865 5865 5865 5865 5866 5867 5868 5869 5869 5870 5870 5870 5870 5870 5869 5868 5866 5865 5863 5861 5859 5857 5855 5853 5850
5889 5887 5886 5885 5883 5881 5880 5880 5879 5877 5876 5874 5873 5872 5872 5870 5868 5867 5867 5867 5866 5866 5866 5866 5867 5867 5868 5868 5869 5869 5869 5868 5868 5867 5866 5864 5862 5861 5859 5857 5855 5853 5850 5848
5885 5885 5883 5882 5881 5879 5878 5877 5877 5875 5873 5873 5872 5872 5872 5870 5868 5867 5867 5867 5867 5866 5866 5866 5867 5867 5867 5867 5867 5867 5867 5866 5865 5864 5863 5862 5860 5858 5856 5854 5852 5850 5848 5845
5881 5881 5881 5879 5878 5877 5876 5875 5874 5873 5871 5871 5870 5870 5870 5869 5867 5867 5867 5867 5867 5866 5866 5866 5866 5866 5866 5865 5865 5865 5864 5864 5863 5862 5861 5859 5858 5856 5854 5852 5850 5847 5845 5842
5877 5878 5878 5876 5875 5874 5873 5873 5872 5870 5869 5868 5868 5868 5869 5868 5866 5866 5866 5866 5865 5865 5865 5864 5864 5864 5863 5863 5863 5862 5862 5861 5860 5859 5858 5856 5855 5853 5851 5849 5847 5844 5841 5839
5874 5874 5874 5873 5872 5871 5870 5869 5868 5867 5866 5866 5866 5868 5866 5865 5864 5864 5864 5864 5863 5862 5862 5861 5861 5861 5860 5860 5860 5859 5859 5858 5857 5856 5855 5853 5851 5849 5847 5845 5843 5840 5837 5834
5870 5870 5870 5869 5868 5867 5866 5865 5864 5864 5864 5863 5862 5866 5863 5862 5862 5862 5862 5861 5860 5860 5859 5859 5858 5858 5858 5857 5857 5856 5855 5855 5854 5852 5851 5849 5847 5845 5843 5841 5838 5835 5833 5830
5866 5866 5866 5865 5865 5864 5862 5861 5860 5859 5859 5858 5858 5861 5859 5858 5858 5858 5858 5858 5857 5856 5855 5855 5855 5854 5854 5854 5853 5852 5852 5851 5850 5848 5847 5845 5843 5841 5838 5836 5833 5830 5827 5824
5862 5862 5862 5861 5859 5858 5857 5856 5855 5854 5853 5853 5854 5855 5854 5854 5854 5854 5854 5853 5852 5852 5851 5851 5851 5850 5850 5850 5849 5848 5847 5846 5845 5844 5842 5840 5838 5836 5833 5830 5827 5824 5821 5817
5858 5857 5856 5855 5854 5853 5852 5851 5850 5850 5849 5849 5849 5849 5849 5849 5848 5848 5848 5848 5847 5847 5847 5847 5846 5845 5845 5845 5845 5844 5843 5842 5840 5839 5837 5835 5833 5830 5827 5824 5821 5818 5814 5811
5852 5852 5851 5851 5849 5848 5847 5847 5846 5845 5844 5844 5843 5843 5844 5844 5843 5842 5842 5843 5843 5843 5843 5842 5842 5841 5841 5840 5840 5839 5838 5837 5835 5833 5831 5829 5826 5824 5821 5818 5814 5811 5807 5803
5846 5846 5845 5845 5844 5843 5843 5842 5841 5840 5839 5839 5838 5839 5838 5838 5838 5837 5837 5838 5838 5838 5838 5838 5837 5836 5836 5835 5834 5833 5832 5830 5829 5827 5825 5822 5820 5817 5814 5810 5807 5803 5799 5795
5840 5839 5839 5839 5839 5838 5840 5836 5835 5835 5834 5834 5833 5832 5832 5833 5833 5832 5832 5833 5833 5833 5834 5833 5832 5831 5830 5829 5828 5827 5825 5824 5822 5820 5817 5815 5812 5809 5806 5802 5799 5795 5791 5787
5833 5832 5832 5832 5832 5832 5832 5831 5830 5829 5828 5828 5828 5827 5826 5826 5827 5827 5826 5827 5828 5828 5828 5828 5827 5826 5825 5823 5822 5820 5818 5816 5814 5812 5809 5807 5804 5800 5797 5793 5790 5786 5782 5778
5827 5827 5826 5826 5825 5826 5828 5826 5824 5825 5824 5824 5822 5821 5821 5821 5820 5820 5820 5821 5822 5822 5821 5821 5820 5819 5818 5816 5814 5813 5811 5808 5806 5804 5801 5798 5795 5791 5788 5784 5780 5776 5772 5768
5821 5820 5820 5819 5818 5819 5820 5819 5819 5820 5820 5818 5817 5816 5815 5814 5814 5813 5813 5814 5814 5814 5814 5813 5812 5811 5810 5808 5806 5804 5802 5800 5798 5795 5793 5789 5786 5782 5778 5774 5770 5766 5762 5757
5815 5814 5814 5813 5813 5815 5814 5813 5814 5814 5813 5812 5811 5810 5809 5807 5806 5806 5807 5807 5806 5806 5805 5804 5804 5802 5801 5799 5797 5795 5793 5790 5788 5785 5783 5779 5776 5772 5768 5764 5759 5755 5750 5746
5808 5808 5807 5808 5809 5807 5807 5807 5807 5806 5806 5806 5805 5804 5804 5801 5800 5799 5799 5798 5798 5797 5797 5796 5795 5793 5792 5790 5788 5786 5783 5780 5777 5775 5771 5768 5764 5760 5756 5752 5748 5743 5738 5734
5802 5801 5800 5800 5801 5801 5801 5800 5800 5800 5799 5799 5799 5798 5797 5795 5794 5793 5792 5791 5790 5789 5788 5787 5786 5784 5782 5779 5777 5775 5772 5769 5766 5763 5759 5755 5752 5748 5744 5739 5735 5731 5726 5721
5795 5794 5793 5793 5793 5793 5793 5793 5793 5792 5792 5792 5791 5790 5789 5788 5787 5786 5785 5784 5782 5781 5779 5777 5776 5774 5772 5769 5766 5764 5761 5757 5754 5750 5746 5742 5738 5734 5730 5726 5722 5717 5713 5708
5788 5788 5787 5787 5786 5786 5786 5785 5785 5785 5784 5784 5783 5782 5781 5780 5779 5778 5776 5775 5773 5771 5769 5767 5765 5762 5760 5757 5754 5751 5748 5744 5741 5737 5733 5729 5725 5721 5716 5712 5708 5703 5699 5694